Location: Baili�vre
(50.0696°N, 4.2409°E)
Time: 21:52:35
(UTC+00:00)

Aureole 2 - Pass Details

Date: 08 August 2020
Orbit: 365 x 900 km, 73.9° (Epoch: 21 September)

Event Time Altitude Azimuth Distance (km) Brightness Sun altitude
Exits shadow 22:04:25 60° 221° (SW) 542 4.6 -20.3°
Maximum altitude 22:04:59 81° 294° (WNW) 491 4.5 -20.3°
Drops below altitude 10° 22:08:57 10° 22° (NNE) 1,811 8.0 -20.6°
Sets 22:11:21 0° 24° (NNE) 2,809 9.0 -20.7°
